Location: Boiro
(42.6475°N, 8.8834°W)
Time: 22:54:11
(UTC+01:00)

Tiros 1 - Pass Details

Date: 09 December 2021
Orbit: 629 x 664 km, 48.4° (Epoch: 18 January)

Event Time Altitude Azimuth Distance (km) Brightness Sun altitude
Rises 23:35:43 0° 295° (WNW) 2,943 - -59.5°
Reaches altitude 10° 23:38:03 10° 293° (WNW) 2,037 - -59.8°
Maximum altitude 23:42:42 64° 212° (SSW) 718 - -60.5°
Drops below altitude 10° 23:47:22 10° 132° (SE) 2,050 - -61.3°
Sets 23:49:44 0° 129° (SE) 2,964 - -61.6°
